• In Belarus
  • List of Countries
  • For 7 days
  • Water Temperature
  • Satellite Maps
  • Weather Map
  • Weather Widgets
  • user-avatar
    Login

    Hourly Weather Stepanakert

    Today, 23 July, Sunday

    Time Temperature Precipitation Wind Pressure Humidity
    00:00 +25°C° 0 mm 2 mps 691 mmHg 48%
    01:00 +24°C° 0 mm 2 mps 691 mmHg 47%
    02:00 +24°C° 0 mm 2 mps 691 mmHg 47%
    03:00 +24°C° 0 mm 2 mps 691 mmHg 47%
    04:00 +24°C° 0 mm 2 mps 691 mmHg 47%
    05:00 +25°C° 0 mm 2 mps 691 mmHg 46%
    06:00 +25°C° 0 mm 2 mps 691 mmHg 45%
    07:00 +27°C° 0 mm 2 mps 691 mmHg 40%
    08:00 +29°C° 0 mm 2 mps 691 mmHg 34%
    09:00 +31°C° 0 mm 3 mps 691 mmHg 29%
    10:00 +33°C° 0 mm 3 mps 691 mmHg 27%
    11:00 +34°C° 0 mm 3 mps 691 mmHg 25%
    12:00 +36°C° 0 mm 3 mps 690 mmHg 23%
    13:00 +36°C° 0 mm 3 mps 690 mmHg 23%
    14:00 +36°C° 0 mm 3 mps 689 mmHg 22%
    15:00 +36°C° 0 mm 3 mps 689 mmHg 25%
    16:00 +36°C° 0 mm 3 mps 689 mmHg 27%
    17:00 +35°C° 0 mm 3 mps 689 mmHg 29%
    18:00 +34°C° 0 mm 3 mps 689 mmHg 31%
    19:00 +31°C° 0 mm 3 mps 689 mmHg 34%
    20:00 +29°C° 0 mm 3 mps 690 mmHg 37%
    21:00 +27°C° 0 mm 2 mps 690 mmHg 41%
    22:00 +26°C° 0 mm 2 mps 690 mmHg 44%
    23:00 +25°C° 0 mm 2 mps 690 mmHg 48%

    Tomorrow, 24 July, Monday

    Time Temperature Precipitation Wind Pressure Humidity
    00:00 +24°C° 0 mm 2 mps 690 mmHg 52%
    01:00 +24°C° 0 mm 2 mps 690 mmHg 54%
    02:00 +23°C° 0 mm 2 mps 690 mmHg 55%
    03:00 +23°C° 0 mm 2 mps 690 mmHg 57%
    04:00 +23°C° 0 mm 2 mps 690 mmHg 57%
    05:00 +23°C° 0 mm 2 mps 690 mmHg 56%
    06:00 +24°C° 0 mm 1 mps 690 mmHg 56%
    07:00 +25°C° 0 mm 2 mps 691 mmHg 53%
    08:00 +27°C° 0 mm 3 mps 691 mmHg 50%
    09:00 +28°C° 0 mm 3 mps 691 mmHg 47%
    10:00 +30°C° 0 mm 4 mps 691 mmHg 44%
    11:00 +32°C° 0 mm 4 mps 690 mmHg 42%
    12:00 +33°C° 0 mm 5 mps 690 mmHg 40%
    13:00 +33°C° 0.1 mm 5 mps 690 mmHg 40%
    14:00 +33°C° 0.1 mm 5 mps 690 mmHg 39%
    15:00 +33°C° 0.1 mm 5 mps 689 mmHg 39%
    16:00 +32°C° 0 mm 5 mps 689 mmHg 42%
    17:00 +30°C° 0 mm 5 mps 689 mmHg 45%
    18:00 +29°C° 0 mm 5 mps 688 mmHg 48%
    19:00 +27°C° 0 mm 4 mps 689 mmHg 54%
    20:00 +26°C° 0 mm 3 mps 689 mmHg 60%
    21:00 +24°C° 0 mm 2 mps 689 mmHg 67%
    22:00 +23°C° 0 mm 2 mps 689 mmHg 68%
    23:00 +23°C° 0 mm 2 mps 689 mmHg 69%

    Day after tomorrow, 25 July, Tuesday

    Time Temperature Precipitation Wind Pressure Humidity
    00:00 +21°C° 0 mm 2 mps 689 mmHg 71%
    01:00 +21°C° 0 mm 2 mps 689 mmHg 69%
    02:00 +21°C° 0 mm 2 mps 689 mmHg 67%
    03:00 +21°C° 0 mm 1 mps 689 mmHg 65%
    04:00 +22°C° 0 mm 1 mps 689 mmHg 63%
    05:00 +22°C° 0 mm 1 mps 689 mmHg 60%
    06:00 +23°C° 0 mm 1 mps 689 mmHg 58%
    07:00 +25°C° 0 mm 2 mps 689 mmHg 52%
    08:00 +26°C° 0 mm 2 mps 689 mmHg 47%
    09:00 +28°C° 0 mm 2 mps 689 mmHg 41%
    10:00 +30°C° 0 mm 3 mps 689 mmHg 39%
    11:00 +31°C° 0 mm 3 mps 689 mmHg 36%
    12:00 +33°C° 0 mm 3 mps 689 mmHg 33%
    13:00 +33°C° 0.1 mm 3 mps 688 mmHg 33%
    14:00 +34°C° 0.1 mm 3 mps 688 mmHg 32%
    15:00 +34°C° 0.1 mm 3 mps 687 mmHg 32%
    16:00 +33°C° 0.2 mm 3 mps 687 mmHg 34%
    17:00 +33°C° 0.2 mm 3 mps 687 mmHg 36%
    18:00 +31°C° 0.2 mm 3 mps 687 mmHg 39%
    19:00 +29°C° 0.1 mm 3 mps 687 mmHg 44%
    20:00 +27°C° 0.1 mm 2 mps 688 mmHg 49%
    21:00 +25°C° 0.1 mm 2 mps 688 mmHg 54%
    22:00 +25°C° 0.1 mm 2 mps 688 mmHg 55%
    23:00 +25°C° 0.1 mm 2 mps 688 mmHg 56%

    26 July, Wednesday

    Time Temperature Precipitation Wind Pressure Humidity
    00:00 +24°C° 0.1 mm 2 mps 688 mmHg 57%
    01:00 +24°C° 0 mm 2 mps 688 mmHg 58%
    02:00 +23°C° 0 mm 2 mps 688 mmHg 59%
    03:00 +23°C° 0 mm 2 mps 688 mmHg 60%
    04:00 +23°C° 0 mm 1 mps 688 mmHg 59%
    05:00 +24°C° 0 mm 1 mps 688 mmHg 57%
    06:00 +24°C° 0 mm 1 mps 688 mmHg 56%
    07:00 +26°C° 0 mm 2 mps 689 mmHg 49%
    08:00 +28°C° 0 mm 2 mps 689 mmHg 43%
    09:00 +30°C° 0 mm 2 mps 689 mmHg 36%
    10:00 +31°C° 0 mm 2 mps 689 mmHg 34%
    11:00 +33°C° 0 mm 3 mps 689 mmHg 31%
    12:00 +35°C° 0 mm 3 mps 689 mmHg 29%
    13:00 +35°C° 0 mm 3 mps 689 mmHg 28%
    14:00 +35°C° 0 mm 3 mps 689 mmHg 28%
    15:00 +36°C° 0 mm 3 mps 688 mmHg 27%
    16:00 +35°C° 0 mm 3 mps 689 mmHg 29%
    17:00 +35°C° 0 mm 3 mps 689 mmHg 31%
    18:00 +34°C° 0 mm 3 mps 689 mmHg 33%
    19:00 +31°C° 0 mm 2 mps 689 mmHg 38%
    20:00 +29°C° 0 mm 2 mps 689 mmHg 42%
    21:00 +27°C° 0 mm 2 mps 690 mmHg 47%
    22:00 +26°C° 0 mm 2 mps 690 mmHg 47%
    23:00 +25°C° 0 mm 2 mps 690 mmHg 48%

    27 July, Thursday

    Time Temperature Precipitation Wind Pressure Humidity
    00:00 +25°C° 0 mm 2 mps 690 mmHg 49%
    01:00 +25°C° 0 mm 2 mps 690 mmHg 49%
    02:00 +24°C° 0 mm 2 mps 690 mmHg 49%
    03:00 +24°C° 0 mm 2 mps 690 mmHg 50%
    04:00 +24°C° 0 mm 2 mps 691 mmHg 49%
    05:00 +25°C° 0 mm 2 mps 691 mmHg 49%
    06:00 +25°C° 0 mm 2 mps 691 mmHg 49%
    07:00 +27°C° 0 mm 2 mps 691 mmHg 44%
    08:00 +29°C° 0 mm 2 mps 692 mmHg 39%
    09:00 +31°C° 0 mm 2 mps 692 mmHg 34%
    10:00 +32°C° 0 mm 2 mps 692 mmHg 31%
    11:00 +35°C° 0 mm 3 mps 692 mmHg 29%
    12:00 +36°C° 0 mm 3 mps 692 mmHg 27%
    13:00 +36°C° 0 mm 3 mps 692 mmHg 26%
    14:00 +37°C° 0 mm 3 mps 691 mmHg 26%
    15:00 +37°C° 0 mm 3 mps 691 mmHg 25%
    16:00 +37°C° 0 mm 3 mps 691 mmHg 27%
    17:00 +36°C° 0 mm 3 mps 691 mmHg 29%
    18:00 +35°C° 0 mm 3 mps 691 mmHg 31%
    19:00 +33°C° 0 mm 3 mps 691 mmHg 34%
    20:00 +30°C° 0 mm 2 mps 691 mmHg 38%
    21:00 +28°C° 0 mm 2 mps 692 mmHg 42%
    22:00 +27°C° 0 mm 2 mps 692 mmHg 43%
    23:00 +26°C° 0 mm 2 mps 692 mmHg 44%

    28 July, Friday

    Time Temperature Precipitation Wind Pressure Humidity
    00:00 +26°C° 0 mm 2 mps 692 mmHg 45%
    01:00 +25°C° 0 mm 2 mps 692 mmHg 45%
    02:00 +25°C° 0 mm 2 mps 692 mmHg 44%
    03:00 +25°C° 0 mm 2 mps 692 mmHg 44%
    04:00 +25°C° 0 mm 2 mps 692 mmHg 44%
    05:00 +26°C° 0 mm 2 mps 692 mmHg 44%
    06:00 +26°C° 0 mm 2 mps 692 mmHg 43%
    07:00 +28°C° 0 mm 2 mps 693 mmHg 38%
    08:00 +30°C° 0 mm 2 mps 693 mmHg 34%
    09:00 +34°C° 0 mm 2 mps 693 mmHg 29%
    10:00 +35°C° 0 mm 2 mps 693 mmHg 27%
    11:00 +36°C° 0 mm 3 mps 692 mmHg 25%
    12:00 +37°C° 0 mm 3 mps 692 mmHg 23%
    13:00 +38°C° 0 mm 3 mps 692 mmHg 22%
    14:00 +38°C° 0 mm 3 mps 692 mmHg 22%
    15:00 +39°C° 0 mm 3 mps 691 mmHg 21%
    16:00 +38°C° 0 mm 3 mps 691 mmHg 23%
    17:00 +37°C° 0 mm 3 mps 691 mmHg 25%
    18:00 +37°C° 0 mm 3 mps 691 mmHg 27%
    19:00 +34°C° 0 mm 2 mps 691 mmHg 31%
    20:00 +31°C° 0 mm 2 mps 691 mmHg 34%
    21:00 +29°C° 0 mm 2 mps 691 mmHg 37%
    22:00 +28°C° 0 mm 2 mps 691 mmHg 38%
    23:00 +28°C° 0 mm 2 mps 692 mmHg 39%
    Show more